カタログに戻る

COSMOS 2063

運用中軍事HEO
NORAD 20536·PAYLOAD·🇷🇺 Russia

打ち上げ Mar 27, 1990 から Plesetsk Cosmodrome

Loading…

次のパス (今後24時間)

TLE

最新Source: Space-Track

元期: Sep 7, 2026, 20:18 UTC

1 20536U 90026A   26250.84625990  .00000580  00000-0  00000-0 0  9994
2 20536  66.6498 166.0945 5386338 129.6603 291.8351  1.99607013265706

AllMySatでCOSMOS 2063をリアルタイム追跡

Download on the App Store